COSMOS 1275 DEB, 12731

Orbit data source: Space-Track

COSMOS 1275 DEB, 12731 is space debris in LEO originally from a launch on Thu, 04 Jun 1981 UTC launched from the Plesetsk Missile And Space Complex (PKMTR). Debris objects in space refer to the collection of defunct objects orbiting the Earth. Examples of debris include non-operational satellites, rocket bodies, and fragments generated from explosions, collisions, or faulty payload assembly.

Loading next visibility...
Identifier
12731, 1981-053BY
Orbit
LEO
Country
Flag of CISCIS
Related business
Manufacturer
Unknown
Mission
Spacecraft
Bus & Motor
Unknown
Mass
Unknown
Launch date (UTC)
1981-06-04 (45 years ago)
Launch vehicle
Unknown
Launch site
Plesetsk Missile And Space Complex (PKMTR)
Object type
Payload
Rocket body
Debris
Shape & HBR
Unknown shape, 0.1 m
Radar Cross Section
Medium (>0.1 m² and <1 m²)

Expand to show TLE details & history
Last TLE update: 3 days ago

TLE from 3 days ago
0 COSMOS 1275 DEB
1 12731U 81053BY  26170.59049080  .00000316  00000-0  28496-3 0  9994
2 12731  82.9363 225.8834 0082613 187.2834 326.6038 13.79474882251416
Epoch: 2026-06-19T14:10Z
TLE epoch observation values (Epoch: 2026-06-19T14:10:18.405Z)
Latitude
26.45573°
Longitude
-78.02719°
Altitude
918.46 km
Speed
7.42 km/s
True Right ascension
02h 49m 28s
True Declination
26° 19' 19"
Sunlit
Object was in daylight at epoch
Visualization orbit readout
Latitude
Unknown
Longitude
Unknown
Altitude
Unknown
Speed
Unknown
Apparent Right ascension
Unknown
Apparent Declination
Unknown
Sunlit
N/A
Visualization observer readout
Local Sidereal Time
23:26:52
Azimuth
Unknown
Elevation
Unknown
Doppler factor
Unknown
Orbital elements
Apogee altitude
1,023.539 km
Perigee altitude
902.246 km
Semi-major axis
7,341.029 km
Eccentricity
0.00826
Inclination
82.9363°
RAAN
225.8834°
Arg. of periapsis
187.2834°
True anomaly
326.0782°
Mean anomaly
326.6038°
Eccentric anomaly
326.34146°
Mean motion
3.4507 °/min
Orbital period
104.33 mins
BSTAR
0.00028496
Loading maneuver chart data...
Computing Atmospheric mass density...

Documentation

Showing up to 5 results
|